Regional Weather Roundup
Issued by NWS

Home | Current Version | Previous Version | Text Only | Print | Product List | Glossary On
Versions: 1 2 3 4 5 6 7 8 9 10 11 12 13 14 15 16 17 18 19 20 21 22 23 24 25 26 27 28 29 30 31 32 33 34 35 36 37 38 39 40 41 42 43 44 45 46 47 48 49 50
000
ASUS43 KLMK 201210
RWRKY
KENTUCKY REGIONAL WEATHER ROUNDUP
NATIONAL WEATHER SERVICE LOUISVILLE KY
800 AM EDT SUN MAY 20 2018

NOTE "FAIR" INDICATES FEW OR NO CLOUDS BELOW 12,000 FEET
WITH NO SIGNIFICANT WEATHER AND/OR OBSTRUCTIONS TO VISIBILITY.

KYZ001>023-026-027-061>063-070>075-201300-
WESTERN AND SOUTH CENTRAL KENTUCKY

CITY           SKY/WX    TMP DP  RH WIND       PRES   REMARKS
PADUCAH        FAIR      67  64  90 NE3       30.08R
HENDERSON      NOT AVBL
OWENSBORO      PTSUNNY   67  65  93 W5        30.09S
HOPKINSVILLE   FAIR      68  65  89 CALM      30.08R
BOWLING GREEN  FAIR      70  65  84 N3        30.09R
GLASGOW        FAIR      68  63  83 CALM      30.11R
$$

KYZ024-025-028>034-038-045-046-053-201300-
NORTH CENTRAL KENTUCKY

CITY           SKY/WX    TMP DP  RH WIND       PRES   REMARKS
LOUISVILLE/SDF FAIR      71  66  84 CALM      30.08R
LOUISVILLE/LOU FAIR      70  68  93 CALM      30.09R
FORT KNOX      FAIR      69  66  91 W3        30.11R
$$

KYZ035>037-039>044-047>052-055>060-089>105-201300-
NORTHEAST KENTUCKY

CITY           SKY/WX    TMP DP  RH WIND       PRES   REMARKS
LEXINGTON      FAIR      70  67  90 S5        30.08R
COVINGTON      PTSUNNY   68  65  90 SW5       30.08R
FRANKFORT      FAIR      70  65  84 W5        30.08R
$$

KYZ054-064>069-076>088-106>120-201300-
SOUTHEAST KENTUCKY

CITY           SKY/WX    TMP DP  RH WIND       PRES   REMARKS
JACKSON        FAIR      66  65  96 VRB3      30.12R
LONDON         FAIR      65  64  97 SE3       30.13R FOG
SOMERSET       FAIR      64  64 100 CALM      30.12F
MIDDLESBORO    FOG       63  63 100 CALM      30.16R VSB 1/2
MONTICELLO     FAIR      67  66  97 VRB3      30.12F
$$





USA.gov is the U.S. government's official web portal to all federal, state and local government web resources and services.